This is the latest recevied weather packets stored in our database for station/object KM6RDV. If no packets are shown the sender has not sent any weather packets the latest 10 day(s).
| Time | Temp. | Humidity | Pressure | Rain* | Wind** | Luminosity | Snow |
|---|---|---|---|---|---|---|---|
| 1778083820 | 15.56° C | 72% | 1023.7 hPa | 0 mm | - | 287 W/m² | - |
| 1778075417 | 13.89° C | 80% | 1023.1 hPa | 0 mm | - | 28 W/m² | - |
| 1778074819 | 13.89° C | 80% | 1023 hPa | 0 mm | - | 20 W/m² | - |
| 1778070026 | 13.89° C | 80% | 1022.4 hPa | 0 mm | - | 0 W/m² | - |
| 1778067024 | 13.89° C | 80% | 1022.1 hPa | 0 mm | - | 0 W/m² | - |
| 1778059819 | 13.89° C | 79% | 1022 hPa | 0 mm | - | 0 W/m² | - |
| 1778057420 | 13.89° C | 79% | 1021.8 hPa | 0 mm | - | 0 W/m² | - |
| 1778054417 | 14.44° C | 78% | 1021.9 hPa | 0 mm | - | 0 W/m² | - |
| 1778050219 | 13.89° C | 80% | 1021.4 hPa | 0 mm | - | 0 W/m² | - |
| 1778044818 | 14.44° C | 76% | 1021 hPa | 0 mm | - | 0 W/m² | - |
| 1778044219 | 14.44° C | 76% | 1020.8 hPa | 0 mm | - | 0 W/m² | - |
| 1778043618 | 14.44° C | 76% | 1020.8 hPa | 0 mm | - | 0 W/m² | - |
| 1778040618 | 14.44° C | 75% | 1020.2 hPa | 0 mm | - | 0 W/m² | - |
| 1778038220 | 15° C | 73% | 1019.8 hPa | 0 mm | - | 0 W/m² | - |
| 1778035816 | 15.56° C | 72% | 1019.3 hPa | 0 mm | - | 16 W/m² | - |
| 1778034016 | 16.11° C | 70% | 1019 hPa | 0 mm | - | 59 W/m² | - |
| 1778033425 | 16.67° C | 69% | 1019.1 hPa | 0 mm | - | 84 W/m² | - |
| 1778029220 | 17.22° C | 63% | 1018.7 hPa | 0 mm | - | 224 W/m² | - |
| 1778028038 | 17.22° C | 65% | 1018.5 hPa | 0 mm | - | 291 W/m² | - |
| 1778021415 | 17.78° C | 62% | 1018.5 hPa | 0 mm | - | 247 W/m² | - |
| 1778020221 | 17.78° C | 61% | 1018.6 hPa | 0 mm | - | 323 W/m² | - |
| 1778019019 | 17.78° C | 61% | 1018.7 hPa | 0 mm | - | 451 W/m² | - |
| 1778016016 | 17.78° C | 59% | 1018.9 hPa | 0 mm | - | 875 W/m² | - |
| 1778015419 | 17.78° C | 59% | 1019.2 hPa | 0 mm | - | 585 W/m² | - |
| 1778013022 | 17.78° C | 60% | 1019 hPa | 0 mm | - | 648 W/m² | - |
* Rain latest hour (hover to see other rain measurements)
** Current wind speed in m/s (hover to see current wind gust speed)